TimeEDT,TemperatureF,Dew PointF,Humidity,Sea Level PressureIn,VisibilityMPH,Wind Direction,Wind SpeedMPH,Gust SpeedMPH,PrecipitationIn,Events,Conditions,WindDirDegrees,DateUTC
12:05 AM,37.4,37.4,100,30.19,0.2,Calm,Calm,-,N/A,Fog,Fog,0,2012-09-21 04:05:00
12:24 AM,37.4,37.4,100,30.19,1.0,Calm,Calm,-,N/A,,Mist,0,2012-09-21 04:24:00
12:27 AM,37.4,37.4,100,30.19,1.5,Calm,Calm,-,N/A,,Partly Cloudy,0,2012-09-21 04:27:00
12:46 AM,37.4,37.4,100,30.19,2.5,Calm,Calm,-,N/A,,Clear,0,2012-09-21 04:46:00
12:49 AM,37.4,37.4,100,30.19,1.2,Calm,Calm,-,N/A,,Clear,0,2012-09-21 04:49:00
12:51 AM,37.4,37.4,100,30.19,0.8,Calm,Calm,-,N/A,,Mist,0,2012-09-21 04:51:00
12:54 AM,37.9,37.0,97,30.20,0.5,Calm,Calm,-,N/A,Fog,Fog,0,2012-09-21 04:54:00
1:01 AM,37.4,37.4,100,30.19,0.2,Calm,Calm,-,N/A,Fog,Fog,0,2012-09-21 05:01:00
1:24 AM,37.4,37.4,100,30.19,0.5,Calm,Calm,-,N/A,Fog,Fog,0,2012-09-21 05:24:00
1:32 AM,37.4,37.4,100,30.19,0.2,Calm,Calm,-,N/A,Fog,Fog,0,2012-09-21 05:32:00
1:54 AM,37.0,37.0,100,30.20,0.2,Calm,Calm,-,N/A,Fog,Fog,0,2012-09-21 05:54:00
2:18 AM,37.4,37.4,100,30.19,0.5,Calm,Calm,-,N/A,Fog,Fog,0,2012-09-21 06:18:00
2:41 AM,37.4,37.4,100,30.19,0.2,Calm,Calm,-,N/A,Fog,Fog,0,2012-09-21 06:41:00
2:51 AM,37.4,37.4,100,30.19,0.8,Calm,Calm,-,N/A,,Overcast,0,2012-09-21 06:51:00
2:54 AM,37.9,37.9,100,30.20,0.8,Calm,Calm,-,N/A,,Overcast,0,2012-09-21 06:54:00
3:01 AM,37.4,37.4,100,30.19,1.5,Calm,Calm,-,N/A,,Overcast,0,2012-09-21 07:01:00
3:13 AM,37.4,37.4,100,30.18,1.5,Calm,Calm,-,N/A,,Overcast,0,2012-09-21 07:13:00
3:15 AM,37.4,37.4,100,30.18,0.8,Calm,Calm,-,N/A,,Overcast,0,2012-09-21 07:15:00
3:35 AM,37.4,37.4,100,30.18,1.0,Calm,Calm,-,N/A,,Overcast,0,2012-09-21 07:35:00
3:44 AM,39.2,39.2,100,30.18,0.5,Calm,Calm,-,N/A,Fog,Fog,0,2012-09-21 07:44:00
3:54 AM,39.0,37.9,96,30.19,0.2,Calm,Calm,-,N/A,Fog,Fog,0,2012-09-21 07:54:00
4:07 AM,37.4,37.4,100,30.18,0.2,Calm,Calm,-,N/A,Fog,Fog,0,2012-09-21 08:07:00
4:37 AM,37.4,37.4,100,30.18,0.2,Calm,Calm,-,N/A,Fog,Fog,0,2012-09-21 08:37:00
4:54 AM,37.0,37.0,100,30.19,0.2,Calm,Calm,-,N/A,Fog,Fog,0,2012-09-21 08:54:00
5:30 AM,37.4,37.4,100,30.18,0.2,Calm,Calm,-,N/A,Fog,Fog,0,2012-09-21 09:30:00
5:37 AM,39.2,37.4,93,30.18,0.8,Calm,Calm,-,N/A,,Overcast,0,2012-09-21 09:37:00
5:44 AM,39.2,39.2,100,30.17,1.5,Calm,Calm,-,N/A,,Overcast,0,2012-09-21 09:44:00
5:48 AM,39.2,39.2,100,30.18,3.0,Calm,Calm,-,N/A,,Overcast,0,2012-09-21 09:48:00
5:54 AM,39.0,39.0,100,30.18,9.0,Calm,Calm,-,N/A,,Overcast,0,2012-09-21 09:54:00
6:11 AM,37.4,37.4,100,30.18,10.0,Calm,Calm,-,N/A,,Mostly Cloudy,0,2012-09-21 10:11:00
6:36 AM,39.2,39.2,100,30.18,10.0,Calm,Calm,-,N/A,,Overcast,0,2012-09-21 10:36:00
6:54 AM,39.9,39.9,100,30.19,9.0,Calm,Calm,-,N/A,,Overcast,0,2012-09-21 10:54:00
7:04 AM,39.2,39.2,100,30.18,1.8,Calm,Calm,-,N/A,,Overcast,0,2012-09-21 11:04:00
7:07 AM,41.0,39.2,93,30.18,0.8,Calm,Calm,-,N/A,,Overcast,0,2012-09-21 11:07:00
7:16 AM,41.0,39.2,93,30.18,0.2,Calm,Calm,-,N/A,Fog,Fog,0,2012-09-21 11:16:00
7:54 AM,42.1,42.1,100,30.19,0.2,Calm,Calm,-,N/A,Fog,Fog,0,2012-09-21 11:54:00
8:23 AM,42.8,42.8,100,30.18,1.0,Calm,Calm,-,N/A,,Mist,0,2012-09-21 12:23:00
8:25 AM,42.8,42.8,100,30.18,2.0,Calm,Calm,-,N/A,,Overcast,0,2012-09-21 12:25:00
8:33 AM,44.6,42.8,93,30.18,10.0,Calm,Calm,-,N/A,,Mostly Cloudy,0,2012-09-21 12:33:00
8:54 AM,45.0,44.1,97,30.20,10.0,Calm,Calm,-,N/A,,Mostly Cloudy,0,2012-09-21 12:54:00
9:24 AM,46.4,46.4,100,30.19,10.0,Calm,Calm,-,0.00,,Scattered Clouds,0,2012-09-21 13:24:00
9:32 AM,48.2,44.6,87,30.19,10.0,Calm,Calm,-,0.00,,Mostly Cloudy,0,2012-09-21 13:32:00
9:42 AM,48.2,46.4,93,30.19,10.0,Calm,Calm,-,0.00,,Mostly Cloudy,0,2012-09-21 13:42:00
9:54 AM,48.9,46.0,90,30.21,10.0,Calm,Calm,-,0.00,,Mostly Cloudy,0,2012-09-21 13:54:00
10:03 AM,50.0,46.4,87,30.19,10.0,Calm,Calm,-,N/A,,Scattered Clouds,0,2012-09-21 14:03:00
10:54 AM,52.0,46.9,83,30.19,10.0,Calm,Calm,-,N/A,,Clear,0,2012-09-21 14:54:00
11:54 AM,55.0,46.0,72,30.18,10.0,Calm,Calm,-,N/A,,Clear,0,2012-09-21 15:54:00
12:54 PM,57.9,48.0,70,30.17,10.0,East,3.5,-,N/A,,Clear,90,2012-09-21 16:54:00
1:54 PM,62.1,48.9,62,30.14,10.0,SE,5.8,-,N/A,,Clear,140,2012-09-21 17:54:00
2:54 PM,64.0,50.0,60,30.12,10.0,ESE,8.1,-,N/A,,Clear,110,2012-09-21 18:54:00
3:54 PM,64.0,50.0,60,30.10,10.0,Variable,5.8,-,N/A,,Clear,0,2012-09-21 19:54:00
4:54 PM,62.1,51.1,67,30.12,10.0,ESE,6.9,-,N/A,,Clear,110,2012-09-21 20:54:00
5:54 PM,60.1,50.0,69,30.12,10.0,ESE,6.9,-,N/A,,Clear,110,2012-09-21 21:54:00
6:54 PM,53.1,48.9,86,30.12,10.0,SSE,3.5,-,N/A,,Scattered Clouds,160,2012-09-21 22:54:00
7:54 PM,52.0,48.9,89,30.14,10.0,ESE,4.6,-,N/A,,Overcast,120,2012-09-21 23:54:00
8:20 PM,51.8,48.2,88,30.13,10.0,Calm,Calm,-,N/A,,Overcast,0,2012-09-22 00:20:00
8:54 PM,50.0,48.9,96,30.14,10.0,Calm,Calm,-,N/A,,Overcast,0,2012-09-22 00:54:00
9:20 PM,48.2,48.2,100,30.12,10.0,Calm,Calm,-,N/A,,Scattered Clouds,0,2012-09-22 01:20:00
9:54 PM,46.9,46.0,97,30.13,10.0,Calm,Calm,-,N/A,,Clear,0,2012-09-22 01:54:00
10:52 PM,44.6,44.6,100,30.11,1.8,Calm,Calm,-,N/A,,Clear,0,2012-09-22 02:52:00
10:54 PM,44.1,43.0,96,30.12,1.0,Calm,Calm,-,N/A,,Clear,0,2012-09-22 02:54:00
11:14 PM,42.8,42.8,100,30.11,0.5,Calm,Calm,-,N/A,Fog,Fog,0,2012-09-22 03:14:00
11:35 PM,44.6,42.8,93,30.10,1.5,Calm,Calm,-,N/A,,Mostly Cloudy,0,2012-09-22 03:35:00
11:43 PM,42.8,42.8,100,30.09,1.0,Calm,Calm,-,N/A,,Mist,0,2012-09-22 03:43:00
11:50 PM,42.8,42.8,100,30.09,2.0,Calm,Calm,-,N/A,,Mostly Cloudy,0,2012-09-22 03:50:00
11:54 PM,43.0,42.1,97,30.10,4.0,Calm,Calm,-,N/A,,Mostly Cloudy,0,2012-09-22 03:54:00
11:59 PM,42.8,42.8,100,30.09,1.8,West,3.5,-,N/A,,Overcast,260,2012-09-22 03:59:00